STARLINK-32433, 61852

Orbit data source: Space-Track

STARLINK-32433, 61852 is a payload satellite owned by SpaceX/Seattle (US) in LEO that was launched on Thu, 07 Nov 2024 UTC via an FALCON 9 launch vehicle from the Air Force Eastern Test Range (AFETR). Payload-class satellites include a variety of spacecraft equipped with specific instruments for various scientific and technological missions. These include communications satellites like Starlink; space stations such as the ISS; scientific satellites like the Hubble; Earth observation satellites from companies like Planet Labs, Umbra, and HawkEye 360; GPS; miniature CubeSats for education and research; and military/defense satellites.

Loading next visibility...
Identifier
61852, 2024-202H
Orbit
LEO
Country
Flag of USUS
Related business
Manufacturer
SpaceX/Seattle
Mission
Operational Commercial Communications
Bus & Motor
STARLINK V2M, Unknown motor
Mass
730 kg wet, ~700 kg dry
Launch date (UTC)
2024-11-07 (1 year ago)
Launch vehicle
FALCON 9
Launch site
Air Force Eastern Test Range (AFETR)
Object type
Payload
Rocket body
Debris
Shape & HBR
Box + 2 Pan, 17.7 m
Radar Cross Section
33.884 m², Large (>1 m²)

Expand to show TLE details & history
Last TLE update: 1 day ago

TLE from 1 day ago
0 STARLINK-32433
1 61852U 24202H   25305.54809852  .00000259  00000-0  18923-4 0  9991
2 61852  43.0051 241.3613 0001053 268.8007  91.2724 15.27569998 55744
Epoch: 2025-11-01T13:09Z
TLE epoch observation values (Epoch: 2025-11-01T13:09:15.712Z)
Latitude
-0.00001°
Longitude
2.96922°
Altitude
482.871 km
Speed
7.626 km/s
True Right ascension
16h 05m 26s
True Declination
0° 00' 00"
Sunlit
Object was in daylight at epoch
Visualization orbit readout
Latitude
Unknown
Longitude
Unknown
Altitude
Unknown
Speed
Unknown
Apparent Right ascension
Unknown
Apparent Declination
Unknown
Sunlit
N/A
Visualization observer readout
Local Sidereal Time
19:29:17
Azimuth
Unknown
Elevation
Unknown
Doppler factor
Unknown
Orbital elements
Apogee altitude
485.746 km
Perigee altitude
484.301 km
Semi-major axis
6,863.16 km
Eccentricity
0.00011
Inclination
43.0051°
RAAN
241.3613°
Arg. of periapsis
268.8007°
True anomaly
91.28446°
Mean anomaly
91.2724°
Eccentric anomaly
91.27843°
Mean motion
3.81731 °/min
Orbital period
94.31 mins
BSTAR
0.000018923
Loading maneuver chart data...
Computing Atmospheric mass density...
Loading historical data...
Loading historical data...
Loading historical data...
Loading historical data...
Loading historical data...
Loading historical data...
Loading historical data...

Documentation

Showing up to 5 results
|